| time (UTC) | temp F | wind direction | speed knots | gust knots | rain 1hr in | rain 24hr in | rain mn in | humidity % | barometer mb |
| 20260505001537 | 56 | 252 | 0.0 | 0.9 | 0.00 | 0.03 | 0.03 | 91 | 1009.7 |
| 20260505000037 | 56 | 226 | 0.0 | 0.0 | 0.00 | 0.03 | 0.03 | 91 | 1009.8 |
| 20260504234553 | 56 | 269 | 0.0 | 0.0 | 0.00 | 0.03 | 0.03 | 92 | 1009.8 |
| 20260504233036 | 56 | 228 | 0.0 | 0.0 | 0.00 | 0.03 | 0.03 | 92 | 1009.8 |
| 20260504231545 | 56 | 179 | 0.0 | 0.0 | 0.00 | 0.03 | 0.03 | 93 | 1009.8 |
| 20260504230034 | 56 | 284 | 0.0 | 0.0 | 0.00 | 0.03 | 0.03 | 94 | 1010.0 |
| 20260504224532 | 55 | 269 | 0.0 | 1.7 | 0.00 | 0.03 | 0.03 | 94 | 1010.2 |
| 20260504223032 | 55 | 49 | 0.0 | 0.0 | 0.00 | 0.03 | 0.03 | 93 | 1010.3 |
| 20260504221532 | 55 | 265 | 0.0 | 4.3 | 0.00 | 0.03 | 0.03 | 93 | 1010.4 |
| 20260504220031 | 55 | 197 | 0.9 | 4.3 | 0.00 | 0.03 | 0.03 | 94 | 1010.5 |
| 20260504214537 | 55 | 309 | 0.0 | 0.0 | 0.00 | 0.03 | 0.03 | 93 | 1010.7 |
| 20260504213031 | 56 | 326 | 0.0 | 0.0 | 0.00 | 0.03 | 0.03 | 94 | 1010.5 |
| 20260504211529 | 56 | 240 | 0.0 | 0.0 | 0.00 | 0.03 | 0.03 | 93 | 1010.5 |
| 20260504210028 | 57 | 207 | 0.0 | 1.7 | 0.00 | 0.03 | 0.03 | 95 | 1010.4 |
| 20260504204551 | 56 | 263 | 0.0 | 2.6 | 0.00 | 0.03 | 0.03 | 95 | 1010.4 |
| 20260504203028 | 56 | 63 | 0.0 | 0.0 | 0.01 | 0.03 | 0.03 | 96 | 1010.4 |
| 20260504201524 | 56 | 194 | 0.0 | 0.0 | 0.01 | 0.03 | 0.03 | 96 | 1010.3 |
| 20260504200028 | 55 | 200 | 0.0 | 0.0 | 0.01 | 0.03 | 0.03 | 96 | 1010.4 |
| 20260504194520 | 54 | 159 | 0.0 | 0.0 | 0.01 | 0.03 | 0.03 | 96 | 1010.5 |
| 20260504193022 | 53 | 239 | 0.0 | 0.0 | 0.00 | 0.02 | 0.02 | 96 | 1010.7 |
| 20260504191516 | 53 | 28 | 0.0 | 0.0 | 0.01 | 0.02 | 0.02 | 96 | 1010.7 |
| 20260504190015 | 53 | 275 | 0.0 | 0.0 | 0.01 | 0.02 | 0.02 | 96 | 1010.4 |
| 20260504184515 | 53 | 143 | 0.0 | 0.0 | 0.01 | 0.02 | 0.02 | 96 | 1010.8 |
| 20260504183014 | 53 | 171 | 0.0 | 0.9 | 0.01 | 0.02 | 0.02 | 96 | 1010.7 |
| 20260504181513 | 53 | 313 | 0.0 | 0.9 | 0.00 | 0.01 | 0.01 | 95 | 1010.9 |
| 20260504180011 | 53 | 113 | 0.0 | 0.0 | 0.00 | 0.01 | 0.01 | 96 | 1010.8 |
| 20260504174508 | 52 | 157 | 0.0 | 0.0 | 0.01 | 0.01 | 0.01 | 96 | 1010.5 |
| 20260504173007 | 52 | 155 | 0.0 | 0.0 | 0.01 | 0.01 | 0.01 | 96 | 1010.6 |
| 20260504171520 | 52 | 24 | 0.0 | 0.0 | 0.01 | 0.01 | 0.01 | 96 | 1010.6 |
| 20260504081530 | 48 | 32 | 0.0 | 0.0 | 0.00 | 0.00 | 0.00 | 93 | 1008.9 |
| 20260504050009 | 52 | 271 | 0.0 | 0.0 | 0.00 | 0.00 | 0.00 | 92 | 1009.6 |
| 20260504044512 | 52 | 271 | 0.0 | 0.0 | 0.00 | 0.00 | 0.00 | 92 | 1009.2 |
| 20260504043012 | 52 | 271 | 0.0 | 0.0 | 0.00 | 0.00 | 0.00 | 92 | 1009.4 |
| 20260504041506 | 52 | 22 | 0.0 | 0.0 | 0.00 | 0.00 | 0.00 | 91 | 1009.2 |
| 20260504040006 | 52 | 26 | 0.0 | 0.0 | 0.00 | 0.00 | 0.00 | 91 | 1009.2 |
| 20260504034504 | 52 | 15 | 0.0 | 0.0 | 0.00 | 0.00 | 0.00 | 91 | 1008.8 |
| 20260504033100 | 52 | 11 | 0.0 | 0.0 | 0.00 | 0.00 | 0.00 | 91 | 1008.6 |
| 20260504031601 | 52 | 355 | 0.0 | 0.0 | 0.00 | 0.00 | 0.00 | 90 | 1008.4 |
| 20260504030057 | 52 | 246 | 0.0 | 0.0 | 0.00 | 0.00 | 0.00 | 90 | 1008.3 |
| 20260504024558 | 53 | 246 | 0.0 | 0.0 | 0.00 | 0.00 | 0.00 | 90 | 1008.3 |
| 20260504023056 | 53 | 207 | 0.0 | 0.0 | 0.00 | 0.00 | 0.00 | 90 | 1008.1 |
| 20260504021556 | 53 | 198 | 0.0 | 0.0 | 0.00 | 0.00 | 0.00 | 89 | 1008.2 |
| 20260504020056 | 53 | 198 | 0.0 | 0.0 | 0.00 | 0.00 | 0.00 | 89 | 1008.2 |
| 20260504014603 | 53 | 198 | 0.0 | 0.0 | 0.00 | 0.00 | 0.00 | 88 | 1008.1 |
| 20260504013055 | 54 | 203 | 0.0 | 0.0 | 0.00 | 0.00 | 0.00 | 88 | 1008.0 |
| 20260504011558 | 54 | 218 | 0.0 | 0.0 | 0.00 | 0.00 | 0.00 | 88 | 1008.0 |
| 20260504010056 | 54 | 194 | 0.0 | 1.7 | 0.00 | 0.00 | 0.00 | 88 | 1007.9 |
| 20260504004550 | 54 | 221 | 0.0 | 0.0 | 0.00 | 0.00 | 0.00 | 87 | 1007.8 |
| 20260504003052 | 55 | 223 | 0.0 | 0.0 | 0.00 | 0.00 | 0.00 | 86 | 1007.9 |